| time (UTC) | temp F | wind direction | speed MPH | gust MPH | rain 1hr in | rain 24hr in | rain mn in | humidity % | barometer mb |
| 20260905001506 | 82 | 178 | 1.0 | 3.0 | 0.00 | 0.00 | 0.00 | 84 | 1012.5 |
| 20260905000105 | 83 | 180 | 2.0 | 5.0 | 0.00 | 0.00 | 0.00 | 82 | 1012.4 |
| 20260904234504 | 85 | 174 | 3.0 | 6.0 | 0.00 | 0.00 | 0.00 | 81 | 1012.3 |
| 20260904233004 | 85 | 193 | 3.0 | 7.0 | 0.00 | 0.00 | 0.00 | 80 | 1012.3 |
| 20260904231504 | 86 | 184 | 5.0 | 7.0 | 0.00 | 0.00 | 0.00 | 78 | 1012.3 |
| 20260904230005 | 86 | 180 | 3.0 | 6.0 | 0.00 | 0.00 | 0.00 | 79 | 1012.4 |
| 20260904224501 | 88 | 220 | 3.0 | 7.0 | 0.00 | 0.00 | 0.00 | 73 | 1012.4 |
| 20260904223100 | 88 | 212 | 3.0 | 6.0 | 0.00 | 0.00 | 0.00 | 73 | 1012.2 |
| 20260904223002 | 88 | 216 | 2.0 | 6.0 | 0.00 | 0.00 | 0.00 | 74 | 1012.2 |
| 20260904221606 | 88 | 223 | 3.0 | 7.0 | 0.00 | 0.00 | 0.00 | 72 | 1012.0 |
| 20260904214559 | 88 | 206 | 4.0 | 8.0 | 0.00 | 0.00 | 0.00 | 74 | 1011.8 |
| 20260904213057 | 86 | 209 | 1.0 | 8.0 | 0.00 | 0.00 | 0.00 | 80 | 1011.9 |
| 20260904211558 | 87 | 211 | 3.0 | 7.0 | 0.00 | 0.00 | 0.00 | 76 | 1011.8 |
| 20260904210057 | 87 | 204 | 5.0 | 7.0 | 0.00 | 0.00 | 0.00 | 75 | 1011.8 |
| 20260904204553 | 87 | 205 | 3.0 | 6.0 | 0.00 | 0.00 | 0.00 | 76 | 1011.7 |
| 20260904203057 | 88 | 226 | 5.0 | 9.0 | 0.00 | 0.00 | 0.00 | 74 | 1011.5 |
| 20260904201556 | 86 | 235 | 5.0 | 11.0 | 0.00 | 0.00 | 0.00 | 75 | 1011.6 |
| 20260904200109 | 87 | 209 | 7.0 | 10.0 | 0.00 | 0.00 | 0.00 | 72 | 1011.9 |
| 20260904194552 | 89 | 217 | 5.0 | 9.0 | 0.00 | 0.00 | 0.00 | 70 | 1011.8 |
| 20260904193050 | 89 | 174 | 6.0 | 10.0 | 0.00 | 0.00 | 0.00 | 69 | 1011.7 |
| 20260904191550 | 89 | 187 | 5.0 | 11.0 | 0.00 | 0.00 | 0.00 | 72 | 1011.4 |
| 20260904190051 | 89 | 177 | 5.0 | 8.0 | 0.00 | 0.00 | 0.00 | 73 | 1011.5 |
| 20260904184547 | 89 | 190 | 5.0 | 10.0 | 0.00 | 0.00 | 0.00 | 68 | 1011.5 |
| 20260904183046 | 89 | 192 | 4.0 | 9.0 | 0.00 | 0.00 | 0.00 | 70 | 1011.6 |
| 20260904181547 | 89 | 196 | 2.0 | 7.0 | 0.00 | 0.00 | 0.00 | 70 | 1011.6 |
| 20260904180047 | 88 | 217 | 3.0 | 6.0 | 0.00 | 0.00 | 0.00 | 71 | 1011.7 |
| 20260904174542 | 88 | 242 | 3.0 | 6.0 | 0.00 | 0.00 | 0.00 | 70 | 1011.9 |
| 20260904173055 | 88 | 259 | 1.0 | 4.0 | 0.00 | 0.00 | 0.00 | 67 | 1011.8 |
| 20260904171545 | 88 | 270 | 1.0 | 6.0 | 0.00 | 0.00 | 0.00 | 68 | 1011.9 |
| 20260904170039 | 88 | 286 | 2.0 | 4.0 | 0.00 | 0.00 | 0.00 | 69 | 1011.9 |
| 20260904164531 | 86 | 290 | 1.0 | 7.0 | 0.00 | 0.00 | 0.00 | 70 | 1011.9 |
| 20260904163030 | 85 | 265 | 3.0 | 8.0 | 0.00 | 0.00 | 0.00 | 74 | 1011.8 |
| 20260904161528 | 85 | 279 | 4.0 | 8.0 | 0.00 | 0.00 | 0.00 | 73 | 1011.7 |
| 20260904160031 | 85 | 227 | 3.0 | 8.0 | 0.00 | 0.00 | 0.00 | 73 | 1011.8 |
| 20260904154523 | 84 | 248 | 4.0 | 8.0 | 0.00 | 0.00 | 0.00 | 76 | 1012.0 |
| 20260904153020 | 84 | 254 | 4.0 | 8.0 | 0.00 | 0.00 | 0.00 | 78 | 1011.8 |
| 20260904151516 | 82 | 247 | 5.0 | 8.0 | 0.00 | 0.00 | 0.00 | 78 | 1011.8 |
| 20260904150012 | 81 | 243 | 4.0 | 9.0 | 0.00 | 0.00 | 0.00 | 81 | 1011.8 |
| 20260904144509 | 80 | 254 | 5.0 | 8.0 | 0.00 | 0.00 | 0.00 | 81 | 1011.7 |
| 20260904143004 | 78 | 257 | 3.0 | 7.0 | 0.00 | 0.00 | 0.00 | 85 | 1011.8 |
| 20260904141603 | 77 | 230 | 3.0 | 5.0 | 0.00 | 0.00 | 0.00 | 89 | 1011.8 |
| 20260904140107 | 76 | 240 | 1.0 | 2.0 | 0.00 | 0.00 | 0.00 | 89 | 1011.7 |
| 20260904134612 | 75 | 240 | 1.0 | 3.0 | 0.00 | 0.00 | 0.00 | 90 | 1011.6 |
| 20260904133055 | 75 | 240 | 1.0 | 4.0 | 0.00 | 0.00 | 0.00 | 90 | 1011.6 |
| 20260904131552 | 75 | 240 | 2.0 | 7.0 | 0.00 | 0.00 | 0.00 | 90 | 1011.6 |
| 20260904130048 | 75 | 225 | 4.0 | 6.0 | 0.00 | 0.00 | 0.00 | 91 | 1011.3 |
| 20260904124547 | 73 | 234 | 3.0 | 7.0 | 0.00 | 0.01 | 0.00 | 94 | 1011.4 |
| 20260904123040 | 72 | 203 | 1.0 | 2.0 | 0.00 | 0.01 | 0.00 | 94 | 1011.5 |
| 20260904121544 | 72 | 203 | 1.0 | 2.0 | 0.00 | 0.01 | 0.00 | 93 | 1011.1 |
| 20260904120037 | 71 | 202 | 0.0 | 1.0 | 0.00 | 0.01 | 0.00 | 93 | 1011.3 |
| 20260904114531 | 71 | 202 | 0.0 | 2.0 | 0.00 | 0.02 | 0.00 | 93 | 1011.2 |
| 20260904113030 | 72 | 202 | 1.0 | 3.0 | 0.00 | 0.02 | 0.00 | 92 | 1011.2 |
| 20260904111529 | 72 | 202 | 0.0 | 1.0 | 0.00 | 0.02 | 0.00 | 92 | 1011.1 |
| 20260904110028 | 72 | 202 | 0.0 | 1.0 | 0.00 | 0.02 | 0.00 | 93 | 1011.0 |
| 20260904104527 | 72 | 202 | 1.0 | 3.0 | 0.00 | 0.21 | 0.00 | 93 | 1011.0 |
| 20260904103027 | 72 | 202 | 2.0 | 3.0 | 0.00 | 0.21 | 0.00 | 93 | 1011.0 |
| 20260904101526 | 72 | 202 | 0.0 | 1.0 | 0.00 | 0.21 | 0.00 | 93 | 1010.9 |
| 20260904100026 | 72 | 202 | 0.0 | 1.0 | 0.00 | 0.21 | 0.00 | 93 | 1011.0 |
| 20260904094539 | 72 | 202 | 0.0 | 2.0 | 0.00 | 0.22 | 0.00 | 93 | 1010.9 |
| 20260904093025 | 72 | 202 | 0.0 | 2.0 | 0.00 | 0.22 | 0.00 | 92 | 1010.9 |
| 20260904091523 | 72 | 202 | 0.0 | 1.0 | 0.00 | 0.22 | 0.00 | 92 | 1010.7 |
| 20260904090039 | 72 | 202 | 0.0 | 2.0 | 0.00 | 0.22 | 0.00 | 92 | 1010.7 |
| 20260904084522 | 72 | 203 | 2.0 | 4.0 | 0.00 | 0.22 | 0.00 | 93 | 1010.5 |
| 20260904083032 | 72 | 202 | 1.0 | 2.0 | 0.00 | 0.22 | 0.00 | 92 | 1010.4 |
| 20260904081529 | 72 | 203 | 0.0 | 0.0 | 0.00 | 0.22 | 0.00 | 93 | 1010.4 |
| 20260904080017 | 73 | 203 | 0.0 | 1.0 | 0.00 | 0.22 | 0.00 | 92 | 1010.4 |
| 20260904074518 | 73 | 203 | 1.0 | 3.0 | 0.00 | 0.22 | 0.00 | 92 | 1010.5 |
| 20260904073015 | 73 | 200 | 1.0 | 2.0 | 0.00 | 0.22 | 0.00 | 92 | 1010.4 |
| 20260904071511 | 74 | 200 | 1.0 | 3.0 | 0.00 | 0.22 | 0.00 | 92 | 1010.5 |
| 20260904070010 | 74 | 200 | 1.0 | 3.0 | 0.00 | 0.22 | 0.00 | 92 | 1010.7 |
| 20260904064508 | 74 | 200 | 1.0 | 3.0 | 0.00 | 0.22 | 0.00 | 91 | 1010.9 |
| 20260904063012 | 75 | 200 | 2.0 | 3.0 | 0.00 | 0.22 | 0.00 | 92 | 1010.9 |
| 20260904061518 | 75 | 200 | 1.0 | 3.0 | 0.00 | 0.22 | 0.00 | 92 | 1010.9 |
| 20260904060005 | 75 | 200 | 2.0 | 4.0 | 0.00 | 0.22 | 0.00 | 92 | 1010.9 |
| 20260904054509 | 75 | 200 | 3.0 | 5.0 | 0.00 | 0.22 | 0.00 | 91 | 1010.9 |
| 20260904053009 | 75 | 200 | 3.0 | 7.0 | 0.00 | 0.22 | 0.00 | 91 | 1010.8 |
| 20260904051506 | 75 | 203 | 3.0 | 7.0 | 0.00 | 0.22 | 0.00 | 92 | 1010.7 |
| 20260904050059 | 74 | 173 | 2.0 | 5.0 | 0.00 | 0.22 | 0.00 | 92 | 1010.7 |
| 20260904044558 | 74 | 173 | 2.0 | 4.0 | 0.00 | 0.22 | 0.22 | 93 | 1010.9 |
| 20260904043102 | 74 | 173 | 1.0 | 3.0 | 0.00 | 0.22 | 0.22 | 92 | 1010.9 |
| 20260904041556 | 74 | 173 | 1.0 | 2.0 | 0.00 | 0.22 | 0.22 | 92 | 1010.9 |
| 20260904040106 | 74 | 173 | 1.0 | 3.0 | 0.00 | 0.22 | 0.22 | 92 | 1010.9 |
| 20260904034555 | 74 | 173 | 1.0 | 3.0 | 0.00 | 0.22 | 0.22 | 92 | 1010.8 |
| 20260904033054 | 75 | 173 | 1.0 | 2.0 | 0.00 | 0.22 | 0.22 | 91 | 1010.8 |
| 20260904031557 | 75 | 173 | 0.0 | 2.0 | 0.00 | 0.22 | 0.22 | 90 | 1010.9 |
| 20260904030054 | 76 | 173 | 0.0 | 2.0 | 0.00 | 0.22 | 0.22 | 88 | 1010.8 |
| 20260904024553 | 77 | 173 | 0.0 | 2.0 | 0.00 | 0.22 | 0.22 | 87 | 1010.9 |
| 20260904023052 | 78 | 173 | 1.0 | 3.0 | 0.00 | 0.22 | 0.22 | 86 | 1010.8 |
| 20260904021551 | 77 | 173 | 2.0 | 7.0 | 0.00 | 0.22 | 0.22 | 86 | 1010.7 |
| 20260904020051 | 77 | 173 | 3.0 | 8.0 | 0.00 | 0.22 | 0.22 | 85 | 1010.6 |
| 20260904014556 | 77 | 176 | 3.0 | 5.0 | 0.00 | 0.22 | 0.22 | 85 | 1010.4 |
| 20260904013049 | 77 | 171 | 3.0 | 6.0 | 0.00 | 0.22 | 0.22 | 85 | 1010.3 |
| 20260904011549 | 76 | 165 | 2.0 | 5.0 | 0.00 | 0.22 | 0.22 | 87 | 1010.3 |
| 20260904010049 | 76 | 138 | 2.0 | 4.0 | 0.00 | 0.22 | 0.22 | 89 | 1010.1 |
| 20260904004547 | 77 | 137 | 1.0 | 2.0 | 0.00 | 0.22 | 0.22 | 87 | 1010.2 |
| 20260904003047 | 78 | 137 | 1.0 | 4.0 | 0.00 | 0.22 | 0.22 | 86 | 1010.1 |